[[{"header":{"parameterUnit":"m.s-1","parameterCategory":1,"la1":30.2991,"la2":30.254,"lo1":-89.0895,"lo2":-89.0444,"dy":0.0017,"dx":0.0017,"nx":28,"ny":28,"refTime":"2025-06-05T21:00:00:Z","depth":0,"parameterNumber":2,"parameterNumberName":"U-component_of_WINDS"},"data":[0,0,0,0,0,0,0,0,0,0,0,0,0,0,0,0,0,0,0,0,0,0,0,0,0,0,0,0,0,0,0,0,0,0,0,0,0,0,0,0,0,0,0,0,0,0,0,0,0,0,0,0,0,0,0,0,0,0,-1.4538,-1.4537,0,-1.4458,-1.4457,-1.4456,-1.4369,-1.4368,-1.4366,-1.4365,-1.4283,-1.4282,-1.4281,0,0,0,0,0,0,0,0,0,0,0,0,0,-1.4614,-1.4614,-1.4538,-1.4537,-1.4536,-1.4458,-1.4457,-1.4456,-1.4369,-1.4368,-1.4366,-1.4365,-1.4284,-1.4282,-1.4281,0,0,0,0,0,0,0,0,0,0,0,0,0,-1.4563,-1.4613,-1.4538,-1.4483,-1.4478,-1.4458,-1.4457,-1.4456,-1.4369,-1.4368,-1.4366,-1.4364,-1.4284,-1.4282,-1.4281,-1.4309,0,0,-1.4276,-1.4276,0,0,0,0,0,0,0,0,-1.4566,-1.456,-1.4492,-1.4487,-1.4481,-1.4421,-1.4454,-1.4406,-1.437,-1.4411,-1.4365,-1.4363,-1.4331,-1.4325,-1.4314,-1.4305,-1.4302,-1.4276,-1.4275,-1.4275,-1.4274,0,0,0,0,0,0,0,-1.4569,-1.4563,-1.4506,-1.4492,-1.4484,-1.4462,-1.4453,-1.4444,-1.4382,-1.4407,-1.44,-1.4392,-1.4327,-1.4316,-1.4312,-1.43,-1.4276,-1.4275,-1.4274,-1.4273,-1.4308,-1.4309,0,0,0,0,0,0,-1.4581,-1.4566,-1.4509,-1.4504,-1.4519,-1.4462,-1.4452,-1.4442,-1.4382,-1.4371,-1.4394,-1.4388,-1.432,-1.4314,-1.4309,-1.4335,-1.4275,-1.4273,-1.4272,-1.4306,-1.4308,-1.431,0,0,0,0,0,0,-1.4583,-1.4577,-1.4512,-1.4533,-1.4523,-1.4463,-1.4453,-1.4442,-1.443,-1.4372,-1.436,-1.4394,-1.4318,-1.4311,-1.4309,-1.4331,-1.4272,-1.4271,-1.4304,-1.4307,-1.4309,-1.4391,0,0,0,0,0,0,-1.4586,-1.4578,-1.4589,-1.4534,-1.4523,-1.4514,-1.4455,-1.4442,-1.4428,-1.442,-1.4369,-1.4359,-1.4316,-1.4312,-1.4307,-1.4328,-1.427,-1.4301,-1.4305,-1.4308,-1.4386,-1.4396,-1.4405,0,0,0,0,0,-1.4589,-1.4615,-1.459,-1.4583,-1.4534,-1.4516,-1.4509,-1.4459,-1.443,-1.444,-1.4402,-1.436,-1.433,-1.4312,-1.4307,-1.4327,-1.43,-1.4304,-1.4308,-1.4382,-1.4394,-1.4405,0,0,0,0,0,0,-1.4674,-1.4607,-1.4578,-1.4588,-1.4558,-1.4501,-1.4512,-1.4474,-1.4452,-1.4446,-1.4385,-1.4374,-1.4379,-1.4353,-1.4335,-1.435,-1.4309,-1.4312,-1.4367,-1.4378,-1.4387,-1.4393,-1.4269,0,0,0,0,0,-1.4694,-1.4685,-1.4627,-1.4641,-1.4628,-1.4573,-1.4563,-1.4527,-1.4494,-1.4481,-1.4443,-1.4412,-1.4395,-1.4385,-1.4367,-1.4382,-1.4369,-1.4394,-1.4403,-1.4411,-1.4414,-1.4418,-1.4428,-1.4324,-1.4324,-1.4324,0,0,-1.4736,-1.4698,-1.4696,-1.4657,-1.463,-1.4621,-1.4563,-1.4556,-1.4549,-1.448,-1.4475,-1.4446,-1.4408,-1.4414,-1.4415,-1.4393,-1.444,-1.4416,-1.4423,-1.4422,-1.4423,-1.4433,-1.4442,-1.4326,-1.4326,-1.4325,0,0,-1.4805,-1.4777,-1.4784,-1.4758,-1.4718,-1.468,-1.4683,-1.4631,-1.4609,-1.4604,-1.4551,-1.4541,-1.4514,-1.4488,-1.4471,-1.4531,-1.4491,-1.4526,-1.4575,-1.458,-1.4588,-1.4595,-1.4614,-1.4622,-1.453,-1.453,-1.453,0,-1.4861,-1.4846,-1.4793,-1.4789,-1.4773,-1.471,-1.4716,-1.4694,-1.465,-1.4639,-1.4615,-1.4579,-1.4549,-1.4547,-1.4561,-1.455,-1.4549,-1.4531,-1.4591,-1.4597,-1.4603,-1.462,-1.4628,-1.4535,-1.4534,-1.4534,-1.4533,0,-1.4916,-1.4906,-1.4917,-1.4875,-1.4861,-1.4863,-1.4809,-1.48,-1.4766,-1.4731,-1.4725,-1.4687,-1.4658,-1.4656,-1.4622,-1.4649,-1.4636,-1.4603,-1.4559,-1.4618,-1.4633,-1.464,-1.4541,-1.4539,-1.4538,-1.4537,0,0,-1.5037,-1.4965,-1.497,-1.4949,-1.49,-1.4891,-1.4889,-1.4861,-1.4854,-1.4826,-1.4821,-1.48,-1.4768,-1.4749,-1.4712,-1.4716,-1.4762,-1.4681,-1.468,-1.4696,-1.4787,-1.4811,-1.482,-1.4736,-1.4738,-1.4738,-1.4789,0,-1.5096,-1.5089,-1.5041,-1.5047,-1.5037,-1.4976,-1.4974,-1.4943,-1.4911,-1.4897,-1.4861,-1.4845,-1.4806,-1.4793,-1.4795,-1.4757,-1.478,-1.4753,-1.473,-1.473,-1.474,-1.4828,-1.4853,-1.4903,-1.4795,-1.4796,-1.4797,0,-1.5165,-1.514,-1.5145,-1.5094,-1.5088,-1.5087,-1.5056,-1.5044,-1.5007,-1.4983,-1.4962,-1.492,-1.4913,-1.4874,-1.4863,-1.4846,-1.4834,-1.4814,-1.4814,-1.4809,-1.4766,-1.4823,-1.4918,-1.4925,-1.4806,-1.4805,-1.4805,0,-1.525,-1.5218,-1.5216,-1.5201,-1.5142,-1.5142,-1.5117,-1.5079,-1.5064,-1.5038,-1.5028,-1.5001,-1.4986,-1.4966,-1.4917,-1.4894,-1.4911,-1.4869,-1.489,-1.4891,-1.4895,-1.4895,-1.4988,-1.4891,-1.4891,-1.4891,-1.4891,0,-1.532,-1.5325,-1.5253,-1.5252,-1.5256,-1.52,-1.5205,-1.5174,-1.514,-1.5131,-1.5078,-1.5071,-1.5008,-1.4993,-1.4955,-1.4951,-1.4945,-1.4924,-1.4914,-1.4928,-1.493,-1.4918,-1.4912,-1.4893,-1.4892,-1.4892,-1.4892,0,-1.5415,-1.5367,-1.5361,-1.5305,-1.5291,-1.5296,-1.5248,-1.5244,-1.5209,-1.5198,-1.5192,-1.5136,-1.5116,-1.5065,-1.5032,-1.5007,-1.5012,-1.4994,-1.5024,-1.5017,-1.504,-1.5038,-1.5127,-1.5134,-1.5035,-1.5036,-1.5037,0,-1.5462,-1.5464,-1.5409,-1.5399,-1.5376,-1.5362,-1.5346,-1.5292,-1.5278,-1.5235,-1.5236,-1.5212,-1.5189,-1.5159,-1.5115,-1.5089,-1.5069,-1.5102,-1.5064,-1.5078,-1.5066,-1.5066,-1.5065,-1.5109,-1.5111,-1.5112,-1.5113,0,-1.5549,-1.5525,-1.5506,-1.5478,-1.5461,-1.5437,-1.5409,-1.5404,-1.5342,-1.5329,-1.5308,-1.529,-1.5256,-1.5232,-1.5198,-1.5172,-1.5131,-1.5125,-1.5128,-1.5141,-1.5158,-1.5147,-1.5044,-1.5123,-1.5122,-1.5121,-1.5121,-1.512,-1.562,-1.5618,-1.5579,-1.5558,-1.5532,-1.5507,-1.55,-1.5463,-1.5444,-1.5412,-1.5381,-1.5362,-1.5323,-1.5275,-1.5251,-1.5235,-1.5214,-1.5219,-1.522,-1.5221,-1.5227,-1.5162,-1.5229,-1.5228,-1.5228,-1.5228,-1.5227,0,-1.5703,-1.5674,-1.5656,-1.5619,-1.5602,-1.5567,-1.5534,-1.5522,-1.5506,-1.5474,-1.5453,-1.5427,-1.5403,-1.5357,-1.5328,-1.5324,-1.5304,-1.5318,-1.5317,-1.5311,-1.5248,-1.5247,-1.5334,-1.5334,-1.5334,-1.5334,-1.5334,-1.5334,-1.5744,-1.5739,-1.571,-1.5691,-1.5662,-1.5643,-1.5627,-1.5603,-1.5577,-1.5551,-1.5531,-1.5501,-1.5462,-1.543,-1.5406,-1.5393,-1.5384,-1.5403,-1.5384,-1.5326,-1.5316,-1.5306,-1.5305,-1.5402,-1.5402,-1.5447,-1.5448,-1.5448]},{"header":{"parameterUnit":"m.s-1","parameterCategory":1,"la1":30.2991,"la2":30.254,"lo1":-89.0895,"lo2":-89.0444,"dy":0.0017,"dx":0.0017,"nx":28,"ny":28,"refTime":"2025-06-05T21:00:00:Z","depth":0,"parameterNumber":3,"parameterNumberName":"V-component_of_WINDS"},"data":[0,0,0,0,0,0,0,0,0,0,0,0,0,0,0,0,0,0,0,0,0,0,0,0,0,0,0,0,0,0,0,0,0,0,0,0,0,0,0,0,0,0,0,0,0,0,0,0,0,0,0,0,0,0,0,0,0,0,0.3595,0.3595,0,0.3557,0.3556,0.3556,0.3575,0.3576,0.3577,0.3578,0.3539,0.3537,0.3535,0,0,0,0,0,0,0,0,0,0,0,0,0,0.3686,0.3684,0.3595,0.3595,0.3594,0.3557,0.3556,0.3556,0.3575,0.3576,0.3577,0.3578,0.354,0.3537,0.3535,0,0,0,0,0,0,0,0,0,0,0,0,0,0.3647,0.3683,0.3595,0.3599,0.3599,0.3557,0.3556,0.3555,0.3574,0.3576,0.3577,0.3579,0.3541,0.3538,0.3535,0.3487,0,0,0.3526,0.3525,0,0,0,0,0,0,0,0,0.3649,0.3643,0.3599,0.3599,0.3599,0.3572,0.3574,0.3532,0.3574,0.3584,0.3578,0.358,0.3549,0.3545,0.3535,0.3485,0.3483,0.3526,0.3524,0.3523,0.3522,0,0,0,0,0,0,0,0.3652,0.3645,0.358,0.3598,0.3598,0.3603,0.3599,0.3566,0.3558,0.3583,0.3584,0.358,0.3549,0.3538,0.3534,0.3483,0.3526,0.3523,0.3521,0.352,0.339,0.3389,0,0,0,0,0,0,0.3654,0.3647,0.3581,0.3579,0.3628,0.36,0.3596,0.3579,0.3559,0.3557,0.3578,0.3581,0.3542,0.3538,0.3533,0.3474,0.3523,0.352,0.3518,0.3392,0.339,0.3388,0,0,0,0,0,0,0.3656,0.3648,0.3583,0.3613,0.3605,0.3597,0.3578,0.3578,0.3566,0.3555,0.3554,0.3568,0.3543,0.3537,0.3498,0.3473,0.3518,0.3516,0.3394,0.3391,0.3389,0.3357,0,0,0,0,0,0,0.3658,0.3648,0.363,0.3613,0.3604,0.3548,0.3577,0.3576,0.3561,0.3563,0.3545,0.3544,0.3544,0.3502,0.3495,0.347,0.3513,0.3396,0.3393,0.339,0.336,0.3354,0.3348,0,0,0,0,0,0.3662,0.3623,0.3629,0.3621,0.358,0.3546,0.3541,0.3542,0.3559,0.354,0.3533,0.3544,0.3477,0.3498,0.349,0.3464,0.3398,0.3394,0.339,0.3363,0.3355,0.3348,0,0,0,0,0,0,0.3637,0.3621,0.3627,0.3582,0.3565,0.355,0.3526,0.3534,0.3512,0.3516,0.3518,0.3514,0.3472,0.3465,0.3488,0.3416,0.344,0.3435,0.3422,0.3414,0.3409,0.3411,0.3511,0,0,0,0,0,0.3627,0.3601,0.3587,0.3548,0.354,0.3534,0.352,0.3522,0.3505,0.3498,0.3488,0.3472,0.3447,0.3431,0.3407,0.336,0.3355,0.3338,0.3332,0.3327,0.3321,0.3295,0.3286,0.3376,0.3376,0.3376,0,0,0.3605,0.3592,0.3575,0.3543,0.3531,0.3503,0.3528,0.3499,0.3478,0.3494,0.3455,0.3448,0.343,0.3386,0.3366,0.3378,0.3296,0.3322,0.3318,0.3315,0.329,0.3281,0.3274,0.3373,0.3374,0.3374,0,0,0.355,0.3538,0.3504,0.3491,0.3471,0.3468,0.346,0.3443,0.3438,0.34,0.3411,0.3387,0.3345,0.3331,0.3318,0.3258,0.3267,0.3251,0.3219,0.3193,0.3185,0.3179,0.3157,0.3149,0.3246,0.3246,0.3246,0,0.3524,0.3483,0.3485,0.3454,0.3439,0.3452,0.3417,0.3405,0.3379,0.3368,0.3382,0.3329,0.3318,0.327,0.3255,0.3245,0.3236,0.3252,0.3186,0.318,0.3174,0.3153,0.3144,0.3244,0.3244,0.3244,0.3244,0,0.3452,0.3424,0.3399,0.3373,0.3355,0.3323,0.332,0.3302,0.3306,0.3301,0.3262,0.3249,0.3222,0.3212,0.3215,0.3164,0.3172,0.3186,0.3211,0.3164,0.3143,0.3135,0.3241,0.3242,0.3242,0.3243,0,0,0.338,0.3356,0.3346,0.3334,0.3314,0.3292,0.326,0.3234,0.3218,0.3201,0.3173,0.3137,0.315,0.3136,0.3138,0.3115,0.3067,0.3132,0.3131,0.3119,0.3009,0.2997,0.2988,0.3074,0.3072,0.3071,0.301,0,0.3323,0.3266,0.3267,0.3214,0.3187,0.3199,0.3171,0.3156,0.315,0.3127,0.3122,0.3095,0.3115,0.3106,0.3084,0.3077,0.3045,0.3082,0.3047,0.3046,0.305,0.2977,0.2965,0.2908,0.3002,0.3001,0.3,0,0.3248,0.3226,0.3171,0.3154,0.3143,0.3117,0.3093,0.3071,0.3054,0.3052,0.3036,0.3042,0.3009,0.3036,0.299,0.3016,0.3002,0.2997,0.2994,0.299,0.3019,0.297,0.289,0.2881,0.2988,0.2989,0.299,0,0.3199,0.3157,0.3118,0.3107,0.3087,0.3069,0.3059,0.3044,0.3028,0.3008,0.2997,0.2973,0.296,0.2941,0.2941,0.296,0.2895,0.2921,0.2891,0.2891,0.2876,0.2876,0.2792,0.2869,0.2869,0.287,0.287,0,0.3134,0.3099,0.3095,0.3071,0.3032,0.3034,0.2996,0.2988,0.2974,0.2949,0.2959,0.2935,0.2936,0.2912,0.2911,0.2873,0.2867,0.2864,0.2864,0.2863,0.2863,0.2852,0.2856,0.2867,0.2868,0.2868,0.2869,0,0.3072,0.3068,0.3026,0.301,0.3005,0.2977,0.2964,0.2941,0.2937,0.2905,0.2897,0.2891,0.2863,0.2861,0.2828,0.2828,0.2782,0.2787,0.2787,0.2787,0.2757,0.2759,0.2661,0.2648,0.2736,0.2735,0.2734,0,0.3029,0.3003,0.2984,0.2967,0.2957,0.293,0.2914,0.2915,0.2898,0.2876,0.2856,0.2829,0.2807,0.2761,0.2754,0.2729,0.2733,0.27,0.2729,0.2728,0.2731,0.2732,0.2728,0.2694,0.2693,0.2692,0.2692,0,0.2954,0.2954,0.293,0.2905,0.2885,0.2866,0.2848,0.2834,0.2833,0.2813,0.2784,0.2767,0.2734,0.2706,0.2682,0.2673,0.2682,0.2683,0.2674,0.2672,0.2672,0.267,0.277,0.2685,0.2685,0.2686,0.2686,0.2687,0.29,0.2876,0.2859,0.2832,0.2818,0.2801,0.2779,0.2772,0.2747,0.272,0.2722,0.269,0.2674,0.2642,0.2631,0.2606,0.2617,0.2605,0.2602,0.2599,0.2595,0.2677,0.2602,0.2602,0.2602,0.2603,0.2603,0,0.2824,0.2814,0.2789,0.2763,0.2741,0.2752,0.2732,0.2714,0.2685,0.2669,0.2647,0.2614,0.2587,0.2578,0.2552,0.2534,0.2537,0.2527,0.2527,0.2525,0.2587,0.2596,0.2524,0.2524,0.2525,0.2525,0.2525,0.2525,0.2782,0.2742,0.274,0.2694,0.2684,0.2652,0.2639,0.2624,0.2611,0.2573,0.2551,0.2545,0.2531,0.2504,0.2481,0.2479,0.2468,0.2456,0.2455,0.2513,0.2521,0.2528,0.2537,0.2454,0.2454,0.2395,0.2395,0.2394]}]]